Wind_Speed
22 21 23 22 21 21 22 22 22 22 22 22 20 20 21 21 20 20 19 19 19 18 17 16 17 17 18 19 19 19 19 18 17 18 18 19 20 21 21 21 21 20 20 20
23 23 24 24 24 24 24 24 24 23 23 23 23 23 22 23 22 21 21 19 20 19 18 18 18 18 19 20 20 20 20 20 19 19 19 20 21 22 22 22 22 22 22 21
23 23 24 24 24 25 25 25 25 25 24 24 24 24 24 23 22 21 21 20 20 19 19 19 20 20 20 21 21 21 21 21 21 21 22 23 22 22 23 23 23 23 23 23
25 24 26 25 25 26 27 25 24 24 24 25 24 25 25 24 23 22 22 22 22 22 22 22 23 23 22 23 23 23 23 23 23 23 24 24 24 23 23 23 23 23 24 25
26 26 25 25 25 26 27 28 27 26 26 26 25 26 26 26 24 23 23 24 24 24 25 24 24 24 24 24 25 25 25 25 25 25 25 25 25 24 25 25 25 25 25 25
27 27 28 27 25 25 26 28 27 27 27 27 28 28 27 27 26 25 25 26 25 25 25 25 25 25 26 26 26 26 27 27 27 27 27 27 27 27 27 26 26 26 27 26
28 29 29 28 27 26 27 26 26 26 27 27 28 27 27 27 26 26 26 27 27 27 27 28 28 28 29 28 28 28 27 28 28 27 28 28 28 28 28 28 27 27 28 26
30 31 31 29 29 28 27 26 26 26 26 27 28 28 27 27 27 27 28 29 28 28 29 29 30 30 30 30 30 30 30 29 29 28 28 28 28 28 28 28 27 28 27 27
31 31 30 29 29 28 28 27 27 27 27 28 28 28 27 27 27 28 29 30 30 30 30 31 31 31 31 31 31 32 32 31 30 30 30 30 29 28 28 28 28 28 28 27
30 30 29 28 28 27 27 27 27 28 28 28 28 27 27 28 29 30 31 31 31 31 32 32 32 33 32 32 32 32 32 31 31 31 30 30 30 29 29 29 29 28 27 27
31 30 29 29 28 27 27 27 28 28 28 27 28 27 27 29 30 31 31 32 32 32 32 32 32 32 31 31 32 32 32 32 32 32 32 32 31 31 31 29 29 29 29 29
30 30 30 29 29 28 29 28 28 27 27 27 28 28 29 30 31 31 31 32 33 33 33 33 32 32 31 31 31 32 33 32 32 32 32 32 32 32 32 31 31 30 31 30
30 30 29 29 30 29 27 26 25 25 26 28 29 29 29 30 31 31 31 32 32 33 33 33 32 32 31 31 32 33 33 33 32 33 33 33 33 33 32 32 32 31 30 30
29 29 29 27 28 28 27 26 25 25 25 26 28 28 29 29 29 30 30 31 31 32 32 32 32 32 32 32 32 32 33 32 33 33 33 34 33 32 32 31 30 30 30 30
26 27 26 26 26 27 27 25 25 25 25 25 26 27 27 28 29 29 29 29 30 31 31 31 31 31 32 32 33 33 33 33 32 32 32 33 33 32 31 31 31 31 30 30
25 26 26 26 25 26 26 26 26 26 26 26 26 27 27 28 28 28 29 29 30 30 30 30 30 31 31 31 32 32 32 32 32 31 32 32 32 32 32 32 32 31 31 31
25 25 25 25 26 27 27 26 26 26 26 26 27 27 28 28 28 28 28 28 29 29 29 29 29 30 29 29 29 30 31 31 32 32 31 32 32 32 32 32 32 32 31 32
24 24 24 24 24 24 24 25 26 26 27 26 26 26 27 27 28 28 28 28 29 29 28 29 29 29 29 29 30 31 31 31 30 31 31 32 33 33 33 33 33 32 32 33
24 24 25 25 25 25 26 26 26 26 26 26 26 27 27 27 28 28 28 28 28 28 28 27 27 28 29 29 30 30 30 31 30 31 31 31 31 32 32 32 32 33 33 33
24 24 25 25 24 25 25 26 25 25 25 25 26 26 27 27 28 28 28 28 27 27 27 27 27 27 27 28 29 29 30 30 30 30 30 29 29 29 30 31 31 32 31 31
22 22 23 23 23 24 24 24 24 24 24 25 25 26 26 26 27 27 26 26 26 26 26 27 27 27 27 28 28 29 29 29 29 29 28 29 29 29 30 30 30 31 31 30
21 21 21 21 21 22 23 23 23 23 23 23 24 25 25 25 25 25 25 25 25 25 26 26 26 26 26 27 27 28 28 29 28 28 28 29 29 29 29 29 29 29 29 30
21 21 20 20 20 21 21 22 22 22 22 22 23 23 23 24 24 24 24 24 24 25 26 26 26 26 26 26 27 28 28 28 28 28 28 29 29 28 28 28 28 28 28 28
21 21 21 21 21 21 22 22 22 22 22 22 22 23 23 23 24 24 24 24 24 24 25 25 25 26 26 27 27 27 27 27 27 27 28 28 28 27 27 26 26 26 26 26
20 20 21 21 21 20 20 21 22 23 23 23 22 22 23 23 23 23 24 24 24 24 24 24 25 25 25 25 25 25 25 25 25 25 26 25 24 24 24 24 24 24 24 24
21 21 20 21 21 20 20 20 20 20 20 20 21 22 22 22 23 24 24 24 24 24 24 24 24 24 24 24 24 23 23 23 22 22 22 22 22 22 23 22 22 23 23 23
21 21 21 21 20 20 20 20 20 20 20 20 20 21 21 22 23 23 24 23 23 23 23 23 24 24 24 23 23 22 22 22 21 21 21 21 22 21 21 21 22 22 22 22
Wind_Direction
244 241 238 240 240 246 254 257 259 264 270 276 279 281 283 285 287 291 290 289 286 283 283 283 286 289 290 289 288 286 287 288 286 283 285 287 288 290 292 292 288 285 286 286
244 243 243 244 245 248 254 258 260 263 268 272 276 280 282 285 284 287 289 291 288 284 285 285 285 286 286 288 290 290 289 287 285 286 287 288 288 289 291 291 289 284 283 283
243 241 242 244 246 247 251 256 261 263 266 269 275 279 282 286 284 285 287 291 290 283 281 284 287 286 286 288 288 288 290 290 291 289 289 289 289 287 289 290 289 287 285 283
246 243 242 245 246 249 253 256 260 264 267 270 272 277 282 283 284 285 287 287 286 282 281 282 283 285 285 285 286 286 287 288 288 289 288 287 289 289 288 289 290 290 288 285
247 246 247 248 249 252 255 257 260 265 269 270 272 276 279 280 281 283 287 287 287 285 283 285 285 283 281 282 284 284 285 286 286 287 287 287 290 290 289 288 287 287 289 287
246 249 250 254 255 256 259 262 263 265 268 270 272 274 277 279 279 281 285 286 286 284 283 284 283 282 283 282 282 283 284 286 287 288 288 287 288 288 288 289 287 287 289 288
248 248 251 254 254 256 260 264 265 265 267 271 272 274 275 276 277 280 283 285 285 284 284 286 286 285 283 282 282 283 284 286 286 286 289 289 289 287 287 287 286 286 288 289
249 250 253 256 256 256 263 266 266 266 268 272 273 273 273 274 276 279 282 283 284 285 286 286 286 284 283 283 282 282 283 284 284 285 287 288 288 287 286 286 284 286 287 288
251 254 256 256 256 259 263 265 264 264 267 268 269 271 272 275 277 279 281 282 283 285 286 286 285 284 283 282 282 283 284 285 285 284 286 287 287 286 286 286 285 285 286 287
252 254 256 257 259 263 265 266 267 267 269 268 268 269 272 274 277 279 281 282 283 284 285 285 285 284 284 282 281 282 282 282 281 281 283 285 287 288 287 285 284 284 286 290
252 254 257 260 264 265 264 267 269 269 269 268 270 272 273 275 277 279 282 283 284 285 285 285 285 284 284 281 280 279 280 281 280 279 281 283 285 288 287 284 284 283 286 289
252 254 257 260 265 269 268 268 268 267 268 270 271 274 276 277 278 280 282 284 285 286 287 286 286 284 283 282 280 280 281 280 279 279 280 282 283 284 285 284 284 285 287 288
252 254 258 264 267 269 269 269 269 269 269 270 272 273 275 277 278 281 283 285 286 286 287 286 286 285 285 284 282 281 280 280 280 281 281 281 282 283 283 283 284 284 285 286
253 255 257 260 263 265 266 266 267 269 271 272 273 274 276 278 281 283 285 286 287 287 287 286 286 286 285 283 282 282 282 282 282 281 281 280 281 283 283 283 283 284 285 286
251 252 256 259 260 264 266 266 269 270 271 274 276 278 279 282 284 286 287 287 288 287 287 286 286 286 285 285 286 285 285 285 285 283 282 281 281 282 283 283 283 283 285 285
253 255 259 259 261 263 265 267 269 271 272 276 279 281 282 284 285 286 286 287 288 288 288 287 286 286 286 286 286 285 285 285 286 283 282 282 282 282 283 283 283 282 283 284
253 255 258 261 263 265 266 266 269 271 273 276 278 280 282 283 285 287 286 287 289 290 289 288 288 287 288 287 287 286 287 286 285 283 282 282 282 282 283 283 283 283 282 284
253 256 258 261 263 266 267 269 272 274 276 277 278 279 279 282 285 286 287 288 290 290 290 289 289 288 288 288 287 287 286 285 284 283 284 284 284 283 282 282 282 282 283 283
255 260 263 266 266 268 270 273 274 276 278 279 279 281 282 283 285 287 289 290 291 291 290 290 290 291 290 289 288 287 286 285 284 284 284 285 285 284 283 282 282 282 282 282
258 262 264 266 267 268 270 272 275 277 279 280 279 280 282 283 285 287 288 290 291 291 290 290 291 291 290 290 289 290 290 289 287 287 287 287 288 287 286 284 284 285 286 285
260 263 264 267 268 269 271 272 273 275 277 278 279 281 283 285 287 288 289 290 291 291 292 293 293 292 292 293 293 293 292 291 289 289 289 289 289 288 287 287 286 286 286 286
259 261 264 268 271 268 268 271 273 275 277 279 280 282 284 287 289 290 290 290 291 292 294 295 295 295 295 296 295 295 294 293 292 290 289 290 290 290 289 288 288 287 287 285
258 260 265 270 271 268 269 270 273 276 279 280 282 284 287 289 291 292 292 292 292 293 295 295 296 296 296 296 296 296 296 296 294 291 291 291 291 291 290 289 288 287 288 287
260 263 266 269 272 272 272 274 276 278 279 281 284 286 287 290 291 293 296 295 295 296 297 297 296 296 296 296 297 297 297 296 295 294 293 292 292 292 291 291 289 288 288 287
263 267 270 271 273 275 277 275 275 277 278 281 283 285 286 288 292 295 296 297 295 295 296 297 298 299 300 299 300 300 300 300 300 298 296 294 292 291 292 292 291 289 289 288
264 267 269 271 272 275 278 279 281 282 282 282 283 284 286 290 294 297 299 299 296 297 298 299 299 300 301 301 301 301 302 302 302 301 299 297 294 294 294 293 292 290 289 288
264 267 269 270 272 274 277 279 280 281 282 283 285 287 289 292 294 297 299 299 299 299 300 300 300 301 302 302 302 302 303 303 303 302 301 300 298 297 297 296 295 293 292 290
Height
5875 5877 5877 5878 5879 5880 5880 5880 5881 5881 5881 5880 5880 5880 5880 5880 5879 5879 5878 5877 5876 5875 5874 5874 5873 5872 5871 5870 5870 5869 5868 5866 5865 5864 5863 5861 5860 5858 5856 5855 5853 5851 5850 5848
5869 5871 5871 5872 5873 5874 5875 5875 5875 5875 5875 5875 5875 5875 5875 5875 5874 5873 5873 5871 5871 5870 5869 5869 5868 5867 5866 5865 5864 5863 5862 5861 5859 5858 5857 5855 5854 5852 5850 5848 5846 5845 5843 5841
5863 5865 5865 5866 5868 5868 5869 5869 5870 5870 5871 5870 5870 5870 5870 5869 5869 5868 5866 5866 5865 5865 5864 5863 5862 5861 5860 5859 5858 5857 5856 5854 5853 5852 5850 5849 5847 5845 5844 5842 5839 5838 5836 5834
5857 5859 5859 5863 5862 5863 5863 5863 5864 5864 5865 5865 5865 5865 5864 5864 5863 5862 5861 5860 5860 5859 5858 5857 5855 5854 5853 5853 5852 5851 5849 5848 5846 5845 5843 5842 5840 5838 5837 5835 5832 5831 5829 5827
5850 5851 5853 5855 5856 5856 5856 5856 5858 5858 5858 5858 5858 5858 5858 5858 5857 5857 5856 5855 5854 5853 5851 5850 5849 5847 5846 5845 5845 5844 5842 5841 5839 5838 5836 5834 5832 5830 5829 5827 5825 5823 5821 5818
5843 5844 5845 5849 5850 5850 5851 5850 5851 5851 5851 5851 5851 5851 5852 5851 5850 5850 5849 5848 5847 5846 5845 5843 5841 5840 5839 5838 5837 5836 5835 5833 5831 5830 5828 5826 5824 5823 5821 5819 5817 5815 5812 5810
5836 5836 5838 5841 5842 5844 5844 5845 5845 5845 5845 5845 5844 5844 5844 5842 5842 5842 5841 5840 5839 5838 5838 5836 5835 5833 5831 5830 5829 5827 5826 5825 5824 5822 5820 5818 5816 5814 5812 5810 5808 5806 5804 5802
5828 5829 5833 5834 5835 5837 5838 5838 5838 5838 5838 5838 5838 5837 5836 5836 5835 5834 5833 5833 5832 5831 5829 5828 5826 5824 5823 5821 5820 5818 5817 5816 5815 5813 5811 5809 5807 5805 5804 5802 5800 5798 5796 5793
5821 5824 5825 5826 5828 5829 5830 5830 5830 5830 5830 5830 5830 5830 5829 5829 5828 5827 5826 5825 5824 5822 5821 5819 5817 5816 5814 5813 5811 5810 5808 5807 5805 5804 5802 5800 5798 5797 5795 5793 5791 5789 5787 5784
5814 5815 5817 5819 5820 5821 5822 5822 5822 5822 5822 5822 5821 5821 5821 5821 5820 5819 5818 5817 5815 5814 5812 5810 5808 5806 5804 5802 5801 5800 5799 5798 5796 5795 5793 5791 5789 5787 5786 5784 5782 5780 5778 5776
5807 5808 5810 5811 5812 5812 5813 5813 5814 5814 5814 5813 5813 5813 5813 5812 5812 5811 5809 5808 5806 5805 5803 5801 5799 5797 5795 5793 5791 5791 5789 5788 5787 5785 5783 5782 5780 5778 5777 5775 5773 5771 5769 5767
5800 5802 5803 5804 5804 5804 5805 5805 5805 5805 5805 5805 5805 5805 5804 5804 5803 5801 5800 5799 5797 5795 5794 5792 5790 5788 5785 5784 5782 5781 5780 5778 5777 5775 5774 5772 5771 5770 5767 5766 5764 5762 5760 5758
5792 5794 5795 5796 5796 5796 5797 5797 5796 5797 5797 5797 5797 5796 5796 5795 5794 5793 5791 5789 5788 5786 5784 5782 5780 5778 5776 5775 5773 5771 5769 5768 5767 5765 5764 5762 5761 5760 5758 5756 5754 5752 5751 5749
5785 5786 5787 5788 5787 5788 5789 5789 5789 5789 5788 5788 5787 5787 5787 5786 5785 5784 5783 5781 5779 5777 5775 5773 5771 5768 5766 5764 5763 5761 5759 5757 5756 5755 5753 5752 5750 5749 5747 5746 5744 5742 5741 5739
5776 5777 5779 5779 5779 5780 5780 5781 5781 5780 5780 5780 5779 5779 5779 5778 5777 5775 5774 5772 5770 5768 5765 5763 5761 5759 5757 5755 5753 5751 5749 5747 5745 5744 5743 5741 5740 5738 5737 5735 5734 5733 5731 5730
5769 5770 5771 5772 5772 5772 5772 5773 5773 5773 5772 5772 5772 5771 5771 5770 5768 5767 5765 5763 5761 5759 5756 5754 5752 5750 5747 5745 5743 5741 5739 5737 5735 5734 5732 5731 5729 5728 5726 5725 5723 5722 5721 5720
5762 5764 5764 5764 5764 5764 5765 5765 5766 5766 5765 5765 5764 5763 5762 5761 5760 5758 5756 5754 5752 5750 5748 5745 5743 5740 5738 5736 5733 5732 5730 5728 5725 5724 5722 5720 5719 5717 5716 5714 5713 5712 5711 5709
5755 5756 5756 5757 5757 5758 5758 5758 5758 5758 5758 5757 5756 5755 5754 5753 5752 5750 5748 5745 5743 5741 5739 5736 5733 5731 5729 5726 5724 5722 5720 5718 5715 5713 5712 5710 5708 5707 5705 5704 5703 5701 5700 5698
5748 5749 5749 5749 5750 5750 5751 5751 5751 5750 5750 5749 5748 5747 5746 5745 5743 5741 5739 5737 5734 5732 5730 5727 5725 5722 5720 5717 5714 5712 5710 5708 5705 5703 5701 5699 5698 5696 5695 5693 5692 5690 5689 5687
5741 5741 5742 5742 5742 5743 5743 5743 5743 5743 5742 5741 5740 5739 5738 5736 5734 5732 5730 5728 5726 5723 5721 5718 5716 5713 5710 5708 5705 5703 5700 5698 5696 5694 5691 5689 5688 5686 5684 5683 5681 5680 5678 5676
5734 5734 5735 5735 5735 5735 5735 5735 5735 5735 5734 5733 5732 5731 5730 5728 5726 5724 5722 5720 5718 5715 5712 5710 5707 5705 5702 5699 5696 5693 5691 5688 5686 5684 5682 5680 5679 5677 5674 5672 5671 5669 5667 5665
5726 5727 5728 5728 5727 5727 5727 5727 5727 5727 5727 5726 5725 5723 5722 5720 5718 5716 5714 5712 5709 5707 5704 5702 5699 5696 5693 5690 5688 5685 5682 5679 5677 5675 5673 5671 5669 5667 5665 5662 5660 5658 5656 5655
5720 5720 5721 5720 5720 5720 5720 5720 5720 5719 5719 5718 5717 5715 5714 5712 5711 5708 5706 5703 5701 5699 5696 5693 5691 5688 5685 5682 5679 5676 5674 5671 5668 5666 5663 5661 5659 5657 5655 5653 5651 5648 5646 5644
5713 5714 5714 5713 5713 5713 5713 5712 5712 5711 5710 5710 5709 5708 5706 5705 5703 5701 5698 5696 5693 5691 5688 5685 5683 5680 5677 5674 5671 5668 5665 5662 5659 5656 5653 5651 5649 5647 5645 5643 5641 5639 5637 5635
5707 5707 5707 5707 5706 5706 5705 5705 5704 5704 5703 5702 5701 5700 5699 5697 5696 5693 5691 5688 5686 5683 5681 5678 5675 5672 5669 5666 5663 5660 5657 5654 5651 5647 5644 5642 5640 5638 5636 5634 5632 5630 5628 5627
5700 5700 5700 5700 5700 5699 5698 5698 5697 5697 5696 5695 5694 5693 5692 5690 5688 5686 5683 5681 5678 5676 5673 5671 5668 5665 5662 5659 5656 5653 5650 5646 5643 5640 5637 5635 5633 5631 5628 5626 5624 5623 5621 5619
5693 5693 5693 5693 5693 5692 5692 5691 5691 5690 5689 5688 5687 5686 5684 5683 5681 5679 5676 5674 5671 5669 5666 5664 5661 5658 5655 5652 5649 5646 5643 5640 5637 5634 5631 5628 5626 5624 5622 5620 5618 5616 5614 5612